View from above orbital plane
|
View from above satellite
|
Ground track
|
The orbit data is extracted from the following two-line orbital elements,
1 23405U 94077B 13138.87573693 .00000078 00000-0 64840-4 0 7387
2 23405 070.9835 108.5030 0001527 003.3268 015.8415 14.15044484954683
| Epoch (UTC): | 18 May 2013 21:01:03 |
| Eccentricity: | 0.0001527 |
| inclination: | 70.9835° |
| perigee height: | 841 km |
| apogee height: | 843 km |
| right ascension of ascending node: | 108.5030° |
| argument of perigee: | 3.3268° |
| revolutions per day: | 14.15044484 |
| mean anomaly at epoch: | 15.8415° |
| orbit number at epoch: | 95468 |
The dashed part of the orbit path shows where the satellite is in the earth's shadow,
|
|